AMC-15

Last updated on Thu Oct 30 2025 00:02:47 GMT+0000 (Coordinated Universal Time)

1 28446U 04041A 25302.53209729 -.00000079 00000+0 00000+0 0 9997 2 28446 0.0476 65.7227 0002132 148.9772 269.9389 1.00271458 76993
UTC large
Height (km)
Speed (km/s)
/
Latitude / Longitude
Inclination (degrees)
Orbital Period (minutes)
Azimuth
Elevation
Range (km)
Doppler Factor

Next 0 passes for location: London (51.5072 / 0.1276)

Sorry there are no passes over London.